World > North America > United States > Michigan

Hourly Evart, MI Regional Weather

Feedback E-mail the Weather

Quick WX

Evart, MI Weather Maps

°F °C°F °C
Evart Weather Map
UTC Time: 7/6/2022, 16:32
Your Time:

Evart, MI Regional Weather

Expires:202207061700;;791966
ASUS43 KDTX 061610
RWRMI 
MICHIGAN HOURLY REGIONAL WEATHER ROUNDUP
NATIONAL WEATHER SERVICE DETROIT/PONTIAC MI
1200 PM EDT WED JUL 06 2022

NOTE: "FAIR" INDICATES FEW OR NO CLOUDS BELOW 12,000 FEET WITH NO
SIGNIFICANT WEATHER AND/OR OBSTRUCTION TO VISIBILITY.


MIZ016>042-061700-
NORTHERN LOWER MICHIGAN
  
CITY           SKY/WX    TMP DP  RH WIND       PRES   REMARKS
ALPENA         CLOUDY    65  57  75 E10       30.08R                  
BEAVER ISLAND  CLOUDY    66  58  74 NE12G18   30.08S                  
BELLAIRE       CLOUDY    71  62  74 NE7       30.06R                  
CADILLAC       CLOUDY    70  63  79 E5        30.04R                  
CHARLEVOIX     CLOUDY    67  60  78 E8        30.06S                  
FRANKFORT      CLOUDY    74  63  69 E6        30.03S                  
GAYLORD        CLOUDY    66  58  75 VRB5      30.08R                  
GRAYLING       CLOUDY    66  61  82 CALM      30.06R                  
HARBOR SPRINGS CLOUDY    68  59  74 NE13      30.08R                  
HOUGHTON LAKE  CLOUDY    69  61  75 E7        30.06R                  
MANISTEE       CLOUDY    74  66  76 NE7       30.01S                  
OSCODA         CLOUDY    68  59  73 E12       30.06R                  
PELLSTON       CLOUDY    67  58  72 E13       30.09R                  
ROGERS CITY    CLOUDY    61  56  84 E7        30.10R                  
TRAVERSE CITY  CLOUDY    72  62  71 N9        30.03R                  
$$

SKY/WX - Weather  TMP - Temperature  DP - Dew Point  RH - Humidity
WIND - Wind Direction/Speed PRES - Barometric Pressure VSB - Visibility
WCI - Wind Chill Index E13G22 Wind - East Wind 13 mph/Gusts of 22 mph

Trending Headlines

Evart Radar Loop



Evart Quick Facts


National Two Day Weather Forecast


E-mail the Evart Weather Forecast

Voice your opinion or tell us about page issues...